Flag for U.S.A. Weather past 2 weeks in Vista, California, U.S.A.

Now
65 °F

Overcast.


Feels Like: 65 °F
Forecast: 62 / 70 °F
Wind: 3 mph from West

Location: McClellan-Palomar Airport

Current Time: Jul 6, 2015 at 3:01:06 AM

Latest Report: Jul 6, 2015 at 1:53 AM


Visibility: 10 mi

Pressure: 30.00 "Hg

Humidity: 85%

Dew point: 60 °F

Location of VistaLocation

Historic Weather in Vista — Graph

°F

Vista temperature yesterday

Maximum temperature yesterday: 68 °F (at 1:53 PM)
Minimum temperature yesterday: 64 °F (at 5:53 AM)
Average temperature yesterday: 66 °F

Past Weeks' High & Low Weather Summary

 TemperatureHumidityPressure
High86 °F (Jun 30, 5:53 PM)97% (Jun 23, 4:53 AM)30.02 "Hg (Jun 23, 4:53 AM)
Low62 °F (Jun 24, 6:53 AM)60% (Jun 23, 11:53 AM)29.79 "Hg (Jun 30, 5:53 PM)
Average69 °F81%29.91 "Hg
* Reported Jun 21 1:53 AM — Jul 6 1:53 AM, Vista, Weather by CustomWeather, © 2015

Note: Actual official high and low records may vary slightly from our data, if they occured in-between our weather recording intervals... More about our weather records

Advertising

Vista weather history for previous 24 hours

 ConditionsComfort  
Time TempWeatherWind HumidityBarometerVisibility
1:53 AM
Mon, Jul 6
65 °FOvercast.3 mph85%30.00 "Hg10 mi
12:53 AM65 °FOvercast.3 mph81%30.00 "Hg10 mi
11:53 PM
Sun, Jul 5
65 °FOvercast.3 mph81%30.00 "Hg10 mi
10:53 PM65 °FOvercast.6 mph81%30.01 "Hg10 mi
9:53 PM66 °FOvercast.5 mph78%30.00 "Hg10 mi
8:53 PM66 °FOvercast.3 mph78%29.98 "Hg10 mi
7:53 PM66 °FOvercast.7 mph78%29.97 "Hg10 mi
6:53 PM67 °FOvercast.8 mph76%29.95 "Hg10 mi
5:53 PM67 °FOvercast.5 mph79%29.95 "Hg10 mi
4:53 PM68 °FOvercast.7 mph76%29.95 "Hg10 mi
3:53 PM68 °FOvercast.10 mph76%29.96 "Hg10 mi
2:53 PM68 °FOvercast.7 mph78%29.96 "Hg10 mi
1:53 PM68 °FOvercast.8 mph78%29.97 "Hg10 mi
12:53 PM67 °FOvercast.6 mph81%29.98 "Hg10 mi
11:53 AM66 °FMostly cloudy.7 mph87%29.99 "Hg7 mi
11:01 AM65 °FFog.8 mph94%30.00 "Hg3 mi
9:53 AM65 °FFog.5 mph94%29.98 "Hg5 mi
9:04 AM64 °FFog.6 mph94%29.99 "Hg2 mi
8:53 AM65 °FFog.5 mph94%29.98 "Hg3 mi
7:53 AM64 °FFog.5 mph94%29.96 "Hg5 mi
6:53 AM64 °FOvercast.5 mph90%29.95 "Hg7 mi
5:53 AM64 °FOvercast.5 mph90%29.93 "Hg9 mi
4:53 AM66 °FOvercast.6 mph81%29.92 "Hg10 mi
3:53 AM66 °FOvercast.No wind81%29.91 "Hg10 mi
Weather by CustomWeather, © 2015

See weather overviewHow to use our weather pages